Date,TemperatureHighF,TemperatureAvgF,TemperatureLowF,DewpointHighF,DewpointAvgF,DewpointLowF,HumidityHigh,HumidityAvg,HumidityLow,PressureMaxIn,PressureMinIn,WindSpeedMaxMPH,WindSpeedAvgMPH,GustSpeedMaxMPH,PrecipitationSumIn
2013-2-1,22.6,19.3,13.0,13.5,10.3,6.7,84,68,56,30.20,29.62,13,2,14,0.00
2013-2-2,21.2,15.8,8.6,15.3,9.9,5.2,91,78,63,30.27,30.11,13,2,14,0.00
2013-2-3,25.4,15.7,8.2,15.6,-15.7,-99.9,91,80,57,30.12,29.84,7,1,0,0.00
2013-2-4,25.9,18.7,10.2,14.6,8.3,-0.2,91,68,35,29.92,29.82,19,2,21,0.00
2013-2-8,22.3,21.0,18.1,20.4,19.1,15.8,93,92,90,30.09,29.99,25,5,25,0.00
2013-2-9,18.0,10.9,-4.9,16.1,4.5,-8.6,92,76,53,30.46,30.00,26,10,29,0.00
2013-2-10,24.0,6.0,-11.6,8.4,-1.5,-14.2,86,71,42,30.61,30.36,9,1,0,0.03
2013-2-11,36.8,28.3,14.0,34.5,22.8,5.7,95,80,52,30.36,29.69,9,1,12,0.18
2013-2-12,39.8,35.9,31.3,30.6,27.9,23.1,81,73,66,29.92,29.68,9,1,12,0.08
2013-2-13,37.3,30.2,18.7,25.9,23.2,15.5,90,75,60,29.92,29.81,6,0,0,0.00
2013-2-14,37.1,30.8,26.1,27.1,23.8,20.8,91,76,56,30.01,29.82,6,0,0,0.00
2013-2-15,31.5,30.7,30.1,24.4,24.1,23.6,78,76,75,29.98,29.96,3,0,0,0.00
2013-2-16,29.1,24.6,19.3,19.8,12.9,6.6,76,61,52,30.08,29.98,15,6,17,0.00
2013-2-17,19.3,14.2,11.2,7.9,4.7,0.5,85,66,50,29.99,29.76,22,9,23,0.00
2013-2-18,26.4,13.9,1.6,5.7,1.2,-2.3,83,59,32,30.24,29.96,16,2,17,0.00
2013-2-19,41.2,27.4,10.3,31.4,18.3,3.3,95,70,44,30.24,29.67,12,1,12,0.04
2013-2-20,32.0,27.2,23.5,30.7,20.5,14.4,95,77,56,29.85,29.67,13,1,14,0.23
2013-2-21,23.4,17.9,11.5,17.1,11.4,4.7,91,75,63,30.49,29.85,7,1,0,0.00
2013-2-22,33.2,24.0,10.3,25.0,19.7,8.0,92,84,67,30.53,30.31,7,1,0,0.02
2013-2-23,35.0,32.4,28.8,31.6,28.3,23.7,95,85,75,30.31,29.97,12,2,14,0.05
2013-2-24,34.9,32.1,28.2,33.9,30.7,26.2,96,95,90,30.03,29.85,11,1,14,0.10
2013-2-25,36.3,31.3,27.0,31.5,29.3,25.5,96,92,81,30.33,30.04,4,0,0,0.02
2013-2-26,40.9,33.3,30.0,34.1,30.5,28.4,97,90,71,30.40,30.16,4,0,0,0.00
2013-2-27,39.1,34.2,31.4,35.5,31.1,28.4,95,88,76,30.17,29.70,12,2,14,0.18
2013-2-28,45.1,36.0,30.9,37.2,32.5,29.6,96,88,66,29.70,29.62,14,2,17,0.07